Weather reports worldwide

Advertisment
Cluanie Inn No 3, United Kingdom (99117): temperature & dewpoint: 22.02.2017 14:00:00 - 28.02.2017 14:00:00 (GMT)Cluanie Inn No 3, United Kingdom (99117): precipitation: 22.02.2017 14:00:00 - 28.02.2017 14:00:00 (GMT)
Date & Time tt [°C] td [°C] rr [mm]
28.02.2017 14:00:00 4,7 -3,1 0,0
28.02.2017 13:00:00 5,5 -3,2 0,0
28.02.2017 12:00:00 4,5 -2,8 0,0
28.02.2017 11:00:00 3,4 0,1 0,0
28.02.2017 10:00:00 1,8 -0,7 0,0
28.02.2017 09:00:00 0,0 -1,1 0,0
28.02.2017 08:00:00 0,1 -0,8 0,0
28.02.2017 07:00:00 0,1 -0,7 0,0
28.02.2017 06:00:00 0,4 -0,7 0,0
28.02.2017 05:00:00 0,7 -0,6 0,0
28.02.2017 04:00:00 -0,7 -1,4 0,0
28.02.2017 03:00:00 -0,4 -1,3 0,0
28.02.2017 02:00:00 -0,8 -1,4 0,0
28.02.2017 01:00:00 -0,8 -2,0 0,0
28.02.2017 00:00:00 -0,8 -3,4 0,0
27.02.2017 23:00:00 1,0 -2,3 0,0
27.02.2017 22:00:00 -3,1 -3,8 0,0
27.02.2017 21:00:00 -3,1 -4,4 0,0
27.02.2017 20:00:00 -1,8 -3,4 0,0
27.02.2017 19:00:00 -1,2 -2,6 0,0
27.02.2017 18:00:00 -0,9 -3,2 0,0
27.02.2017 17:00:00 2,0 -1,9 0,0
27.02.2017 16:00:00 2,2 -2,6 0,0
27.02.2017 15:00:00 4,5 -1,8 0,0
27.02.2017 14:00:00 3,7 -2,3 0,0
27.02.2017 13:00:00 3,7 -2,5 0,0
27.02.2017 12:00:00 3,1 -2,2 1,4
27.02.2017 11:00:00 2,0 -0,2 3,4
27.02.2017 10:00:00 0,4 -0,6 0,4
27.02.2017 09:00:00 -0,1 -0,5 0,0
27.02.2017 08:00:00 -0,8 -1,0 0,0
27.02.2017 07:00:00 -1,5 -2,0 0,0
27.02.2017 06:00:00 -0,7 -1,4 0,0
27.02.2017 05:00:00 0,1 -1,2 0,0
27.02.2017 04:00:00 0,7 -2,1 0,0
27.02.2017 03:00:00 1,6 -2,7 0,0
27.02.2017 02:00:00 0,9 -1,4 0,0
27.02.2017 01:00:00 0,2 -0,1 0,0
27.02.2017 00:00:00 0,5 -1,1 0,0
26.02.2017 23:00:00 2,6 -2,4 0,0
26.02.2017 22:00:00 2,5 0,1 1,4
26.02.2017 21:00:00 1,5 -0,2 0,8
26.02.2017 20:00:00 4,0 0,8 0,2
26.02.2017 19:00:00 4,0 1,4 1,2
26.02.2017 18:00:00 3,5 1,9 1,4
26.02.2017 17:00:00 3,8 1,8 1,2
26.02.2017 16:00:00 4,3 2,8 1,6
26.02.2017 15:00:00 4,8 3,4 2,4
26.02.2017 14:00:00 5,3 4,2 2,8
26.02.2017 13:00:00 5,4 4,3 1,2
26.02.2017 12:00:00 5,9 4,0 0,2
26.02.2017 11:00:00 4,3 3,1 0,0
26.02.2017 10:00:00 3,7 3,1 2,2
26.02.2017 09:00:00 3,8 2,6 1,6
26.02.2017 08:00:00 3,9 1,9 2,6
26.02.2017 07:00:00 4,3 1,7 3,0
26.02.2017 06:00:00 4,9 2,0 1,8
26.02.2017 05:00:00 5,6 1,8 0,0
26.02.2017 04:00:00 5,5 1,7 0,2
26.02.2017 03:00:00 5,7 1,6 0,0
26.02.2017 02:00:00 5,7 1,8 0,0
26.02.2017 01:00:00 4,6 1,5 0,0
26.02.2017 00:00:00 5,7 0,9 0,0
25.02.2017 23:00:00 5,4 1,2 0,0
25.02.2017 22:00:00 3,8 1,9 0,0
25.02.2017 21:00:00 3,8 2,0 0,0
25.02.2017 20:00:00 5,1 2,2 0,6
25.02.2017 19:00:00 5,4 1,9 0,0
25.02.2017 18:00:00 5,2 1,8 0,2
25.02.2017 17:00:00 6,0 2,0 0,0
25.02.2017 16:00:00 6,2 2,7 0,0
25.02.2017 15:00:00 7,4 1,4 0,0
25.02.2017 14:00:00 7,3 1,4 0,0
25.02.2017 13:00:00 7,2 3,0 0,4
25.02.2017 12:00:00 7,5 5,0 1,0
25.02.2017 11:00:00 7,5 5,8 1,4
25.02.2017 10:00:00 9,0 7,1 3,6
25.02.2017 09:00:00 9,8 7,5 2,2
25.02.2017 08:00:00 9,4 7,1 5,2
25.02.2017 07:00:00 8,3 6,1 4,6
25.02.2017 06:00:00 8,2 6,0 3,0
25.02.2017 05:00:00 8,1 6,3 5,0
25.02.2017 04:00:00 8,6 6,2 1,2
25.02.2017 03:00:00 8,8 6,6 1,4
25.02.2017 02:00:00 8,7 6,5 0,6
25.02.2017 01:00:00 8,1 6,1 0,6
25.02.2017 00:00:00 7,1 5,3 0,8
24.02.2017 23:00:00 6,5 4,8 0,8
24.02.2017 22:00:00 5,7 3,7 0,4
24.02.2017 21:00:00 5,0 3,3 0,4
24.02.2017 20:00:00 3,8 2,0 0,4
24.02.2017 19:00:00 3,2 0,9 0,6
24.02.2017 18:00:00 3,2 1,1 1,4
24.02.2017 17:00:00 2,5 1,6 0,6
24.02.2017 16:00:00 3,6 1,3 0,2
24.02.2017 15:00:00 3,3 1,5 0,2
24.02.2017 14:00:00 4,0 1,0 0,0
24.02.2017 13:00:00 4,7 0,2 0,0
24.02.2017 12:00:00 4,3 -0,5 0,0
24.02.2017 11:00:00 4,0 -0,1 0,0
24.02.2017 10:00:00 3,5 0,8 0,0
24.02.2017 09:00:00 3,1 0,5 0,0
24.02.2017 08:00:00 2,5 0,7 0,0
24.02.2017 07:00:00 2,1 0,7 0,4
24.02.2017 06:00:00 2,3 0,8 0,0
24.02.2017 05:00:00 2,3 1,0 0,6
24.02.2017 04:00:00 2,2 1,0 0,8
24.02.2017 03:00:00 2,2 1,0 0,8
24.02.2017 02:00:00 1,9 0,9 0,6
24.02.2017 01:00:00 1,9 0,8 2,6
24.02.2017 00:00:00 1,7 0,6 2,4
23.02.2017 23:00:00 2,2 1,2 0,6
23.02.2017 22:00:00 2,1 1,3 0,6
23.02.2017 21:00:00 2,1 0,9 0,2
23.02.2017 20:00:00 1,3 1,0 0,4
23.02.2017 19:00:00 1,2 0,8 0,4
23.02.2017 18:00:00 1,8 0,7 0,4
23.02.2017 17:00:00 2,7 1,5 0,2
23.02.2017 16:00:00 2,9 1,3 0,2
23.02.2017 15:00:00 3,4 1,5 0,0
23.02.2017 14:00:00 3,3 1,9 0,0
23.02.2017 13:00:00 3,2 2,1 0,0
23.02.2017 12:00:00 2,4 1,2 0,2
23.02.2017 11:00:00 1,9 1,2 0,2
23.02.2017 10:00:00 1,4 0,3 0,4
23.02.2017 09:00:00 1,3 -0,1 0,4
23.02.2017 08:00:00 1,9 -0,9 0,4
23.02.2017 07:00:00 1,4 -0,6 0,4
23.02.2017 06:00:00 1,2 0,4 0,4
23.02.2017 05:00:00 0,8 0,3 0,6
23.02.2017 04:00:00 1,1 0,4 0,4
23.02.2017 03:00:00 1,9 0,8 0,0
23.02.2017 02:00:00 1,5 0,4 0,0
23.02.2017 01:00:00 1,6 0,7 0,0
23.02.2017 00:00:00 1,3 0,7 0,0
22.02.2017 23:00:00 1,2 0,5 0,0
22.02.2017 22:00:00 0,8 0,0 0,0
22.02.2017 21:00:00 1,7 0,7 0,0
22.02.2017 20:00:00 2,4 0,9 0,0
22.02.2017 19:00:00 2,0 0,4 0,0
22.02.2017 18:00:00 3,2 1,5 1,6
22.02.2017 17:00:00 4,4 1,2 0,6
22.02.2017 16:00:00 4,9 0,2 0,0
22.02.2017 15:00:00 3,2 1,7 2,2
22.02.2017 14:00:00 5,2 1,0 0,2

tt = temperature
td = dewpoint
rr = precipitation

Next stations